Dewpoint
-10 -6 -5 -6 -5 -4 -3 -2 -0 -1 -2 -0 0 -1 -2 -3 -2 -2 -2 0 0 1 0 -1 -1 -1 -2 -5 -7 -4 -1 -1 2 4 4 3 4 4 3 2 1 -0 -1 -1
-10 -7 -7 -7 -5 -4 -4 -3 -4 -1 -2 -1 -0 -0 -2 -3 -3 -3 -1 0 -0 -1 -2 -2 -2 -2 -2 -2 -3 -7 -3 -1 0 3 3 3 3 3 3 2 0 -5 -8 -6
-8 -8 -9 -8 -6 -5 -5 -4 -1 -0 -2 -1 -1 0 -1 -3 -3 -3 -2 -1 0 -1 -2 -3 -3 -3 -3 -2 -2 -3 -7 -4 -1 2 2 1 1 1 -0 -1 -3 -8 -13 -13
-9 -10 -9 -9 -6 -6 -4 -3 -2 -2 -1 2 -2 3 -0 -2 -2 -3 -2 -0 -1 -2 -3 -2 -2 -2 -3 -2 -2 -4 -7 -11 -6 -1 -2 -3 -4 -3 -2 -2 -3 -10 -14 -14
-6 -9 -8 -8 -8 -8 -4 -3 -2 -2 -1 -1 -1 2 0 -2 -1 -2 -2 -1 -2 -3 -3 -3 -4 -4 -2 -2 -2 -3 -7 -10 -10 -9 -5 -8 -4 -4 -5 -6 -8 -11 -18 -23
-8 -11 -9 -8 -10 -8 -4 -1 -2 -2 -1 4 -0 0 2 -1 -1 -2 -2 -2 -3 -3 -3 -3 -4 -4 -3 -2 -2 -3 -6 -8 -9 -8 -6 -6 -9 -7 -9 -11 -17 -20 -26 -30
-8 -7 -9 -10 -9 -8 -4 -0 3 3 4 5 -0 1 2 -2 -3 -2 -2 -2 -3 -4 -3 -3 -3 -3 -3 -3 -3 -3 -4 -5 -7 -9 -5 -5 -9 -16 -18 -21 -23 -25 -26 -30
-4 -4 -8 -9 -7 -4 -3 -1 3 3 3 2 -1 3 1 -2 -3 -2 -2 -2 -3 -3 -3 -3 -3 -2 -3 -3 -3 -3 -4 -5 -7 -11 -17 -16 -17 -20 -22 -23 -26 -27 -27 -25
-3 -4 -9 -10 -8 -6 -3 -1 -2 -0 -0 2 -1 2 -1 -2 -2 -2 -2 -3 -3 -3 -3 -3 -3 -3 -3 -3 -2 -3 -5 -7 -9 -8 -11 -14 -14 -15 -17 -19 -22 -21 -20 -17
-4 -2 -7 -8 -7 -7 -5 -5 -0 3 1 3 2 2 3 0 -0 -1 -2 -2 -2 -3 -3 -3 -4 -3 -3 -4 -2 -3 -4 -9 -8 -6 -6 -11 -14 -15 -17 -20 -22 -23 -23 -22
-8 -2 -4 -7 -5 -4 -4 -3 1 2 3 4 3 2 0 -1 -1 -1 -2 -2 -2 -2 -2 -4 -4 -4 -3 -3 -8 -3 -4 -7 -8 -10 -15 -18 -17 -16 -21 -26 -29 -31 -30 -31
-7 -0 -1 -4 -6 -7 -5 -4 2 2 -0 4 5 4 0 -1 -2 -2 -2 -2 -2 -2 -2 -4 -4 -4 -3 -3 -6 -4 -5 -7 -10 -12 -16 -19 -19 -21 -24 -30 -32 -33 -34 -33
-5 -0 1 -3 -4 -6 -6 -3 1 4 5 5 3 2 -3 -1 -2 -2 -2 -2 -2 -2 -3 -4 -4 -3 -3 -3 -3 -5 -5 -7 -10 -10 -14 -17 -19 -23 -29 -32 -33 -33 -33 -33
-4 -3 1 0 -2 -4 -4 -3 0 3 4 3 4 2 -1 -1 -1 -2 -2 -2 -2 -2 -3 -4 -4 -3 -3 -3 -4 -4 -7 -6 -12 -12 -13 -17 -23 -26 -30 -32 -32 -33 -34 -34
-3 -2 -3 -2 -4 -5 -5 -6 -4 -1 2 1 0 1 -3 -1 -2 -2 -2 -2 -2 -3 -4 -4 -3 -3 -3 -3 -4 -4 -5 -7 -14 -15 -15 -20 -26 -27 -30 -31 -32 -34 -34 -32
-3 -0 -3 -1 -2 -4 -4 -5 -6 -5 -3 -1 -2 -2 -6 -3 -3 -3 -3 -3 -3 -4 -5 -5 -4 -3 -3 -3 -5 -4 -5 -10 -16 -16 -18 -23 -25 -25 -25 -29 -31 -33 -32 -28
-1 0 1 -0 -2 -1 -1 -3 -6 -6 -6 -6 -2 -4 -7 -2 -3 -3 -3 -3 -4 -5 -5 -4 -4 -3 -4 -3 -5 -5 -6 -8 -14 -15 -18 -22 -22 -22 -21 -24 -25 -29 -28 -26
-1 0 2 2 -1 1 -3 -6 -7 -7 -8 -8 -8 -7 -7 -3 -4 -4 -3 -4 -5 -5 -6 -5 -4 -4 -4 -4 -6 -6 -5 -7 -13 -13 -15 -20 -19 -18 -17 -19 -22 -26 -27 -25
-2 1 2 2 3 -1 -3 -6 -7 -7 -6 -10 -8 -9 -10 -6 -4 -4 -4 -4 -5 -6 -7 -5 -5 -5 -5 -6 -7 -6 -6 -8 -11 -11 -12 -14 -15 -16 -17 -17 -22 -25 -26 -24
-3 0 1 3 1 2 -3 -5 -9 -9 -4 -8 -9 -9 -10 -7 -3 -3 -4 -5 -6 -7 -7 -6 -5 -6 -6 -7 -8 -6 -6 -7 -10 -10 -9 -11 -13 -15 -15 -17 -21 -24 -26 -25
1 0 2 2 1 1 -5 -7 -8 -3 -2 -8 -7 -8 -10 -8 -6 -7 -5 -5 -6 -8 -8 -7 -6 -6 -8 -8 -8 -7 -6 -6 -8 -7 -8 -10 -13 -15 -16 -17 -20 -24 -26 -29
1 1 1 2 0 1 -8 -8 -6 -5 -6 -8 -8 -6 -7 -10 -12 -9 -6 -6 -7 -9 -8 -7 -6 -7 -8 -9 -8 -8 -7 -7 -6 -6 -8 -11 -15 -16 -17 -17 -20 -23 -29 -31
-1 -0 1 1 1 -2 -7 -7 -6 -5 -6 -6 -6 -7 -6 -7 -9 -10 -7 -7 -8 -9 -9 -7 -7 -8 -8 -8 -8 -8 -8 -6 -6 -6 -8 -12 -16 -16 -17 -17 -19 -23 -30 -32
1 -1 1 -1 -1 -2 -6 -8 -9 -7 -6 -6 -7 -8 -6 -6 -7 -11 -9 -9 -9 -9 -8 -6 -7 -8 -8 -8 -7 -7 -8 -6 -6 -6 -8 -14 -16 -16 -17 -17 -18 -24 -30 -31
1 1 2 1 -1 -3 -5 -5 -9 -9 -7 -7 -8 -8 -7 -6 -6 -7 -9 -8 -9 -8 -7 -7 -7 -7 -7 -6 -6 -6 -7 -7 -5 -6 -8 -14 -15 -15 -16 -18 -20 -24 -29 -30
-2 2 3 2 -1 -0 -1 -3 -4 -9 -8 -7 -8 -8 -8 -8 -6 -6 -7 -7 -8 -7 -6 -6 -6 -7 -7 -6 -6 -6 -6 -6 -6 -6 -8 -14 -14 -14 -16 -18 -20 -24 -28 -31
Wind_Speed
15 2 6 10 6 6 8 8 13 12 10 10 9 12 10 18 18 19 23 30 24 16 12 10 11 10 10 10 8 10 6 8 12 12 12 8 10 11 11 14 14 14 14 13
2 8 10 8 8 10 12 16 9 11 15 7 13 8 7 10 17 18 22 25 28 22 17 14 9 8 10 9 9 10 10 8 13 12 13 9 6 9 10 10 14 16 15 15
7 9 15 12 10 13 12 11 9 22 12 9 11 3 9 11 17 24 25 25 23 20 15 10 9 9 10 11 8 7 9 8 12 13 14 9 8 8 10 13 14 17 17 16
11 18 19 16 12 14 13 17 19 18 15 7 7 4 12 13 13 15 25 29 28 24 17 16 15 10 7 10 6 5 6 9 9 12 11 10 13 15 14 12 11 14 17 17
11 9 11 11 10 10 5 17 14 13 12 7 9 5 5 16 11 9 18 27 28 24 23 18 15 12 9 9 7 6 7 10 11 12 11 14 13 15 12 11 11 13 15 16
8 13 5 4 5 7 10 13 16 10 5 1 9 7 5 16 21 15 20 26 26 24 20 18 14 14 11 10 9 4 7 11 12 13 14 13 14 12 12 12 12 12 14 16
9 6 4 5 2 3 11 12 2 1 1 5 8 7 9 22 23 25 27 32 30 25 23 20 19 15 11 14 12 6 5 11 11 13 13 12 11 11 11 12 12 11 13 16
6 4 8 5 5 7 7 9 6 6 5 5 8 6 7 20 34 33 35 37 37 35 30 25 22 19 13 16 13 9 6 9 9 9 11 9 9 10 11 10 10 11 12 14
6 6 5 3 3 10 5 8 7 4 1 4 5 3 7 9 17 28 32 36 38 35 29 22 26 17 13 16 13 9 7 8 8 8 7 9 9 9 10 10 10 11 12 12
5 5 9 6 2 6 10 5 4 3 3 3 4 7 8 12 16 21 26 32 37 35 29 26 23 18 13 12 17 10 6 7 8 8 5 6 8 8 8 8 10 10 11 12
2 5 5 7 6 7 4 4 2 5 5 4 1 4 3 12 17 23 28 34 39 36 30 30 24 18 16 12 14 14 8 7 7 5 5 5 6 5 6 7 8 10 11 13
7 5 6 9 3 3 1 4 5 5 6 2 4 5 7 13 15 29 30 34 38 34 31 30 25 23 21 16 14 16 12 8 6 4 4 4 4 4 4 7 8 10 12 14
4 1 4 2 4 3 2 6 5 6 4 5 5 5 0 13 17 27 30 33 37 33 33 32 29 29 24 17 14 15 13 9 8 6 4 3 3 3 4 6 8 10 12 13
7 5 7 8 6 3 4 5 7 6 4 4 5 4 4 9 14 23 29 35 38 36 36 35 33 31 26 21 18 15 15 12 10 8 6 4 2 2 4 5 7 10 11 12
5 5 6 6 7 10 8 10 8 8 6 8 5 9 7 14 16 28 31 36 38 38 39 38 35 33 28 23 21 18 16 14 11 10 8 5 3 2 3 4 7 9 10 11
2 1 4 1 4 15 15 16 16 11 10 11 9 8 8 23 25 27 31 35 36 38 40 40 38 35 31 28 26 23 19 16 14 11 9 6 4 2 2 4 7 9 9 9
3 5 3 4 2 7 9 13 19 15 13 13 10 14 2 13 24 32 34 38 37 39 41 42 42 38 34 32 28 26 22 17 15 12 9 7 5 2 1 4 6 8 8 10
5 6 4 3 3 8 6 8 6 13 14 10 12 8 10 20 36 37 38 40 38 41 41 42 42 39 36 33 29 25 24 20 16 13 11 8 6 3 1 3 5 7 8 11
5 5 3 5 4 4 6 5 6 6 8 10 11 11 10 30 28 27 45 44 43 43 42 42 41 38 36 34 30 27 26 22 18 15 12 9 6 4 2 4 7 8 9 10
6 4 5 4 6 8 8 10 11 1 8 6 9 13 18 20 12 10 44 43 43 41 42 41 40 38 37 35 32 30 27 24 20 17 13 11 8 5 4 4 6 7 8 10
3 2 8 2 3 6 5 8 14 7 6 13 6 7 25 8 21 31 41 44 44 42 42 40 41 41 39 36 33 31 28 26 20 15 15 13 10 7 5 5 6 8 9 10
6 5 4 3 3 8 7 10 9 6 11 5 2 2 1 22 21 29 38 44 44 44 42 43 44 43 40 37 34 32 30 26 21 21 19 16 12 9 7 6 7 8 10 11
8 6 5 10 6 8 23 10 6 4 11 7 5 2 2 6 21 26 37 43 44 46 45 45 46 43 41 38 35 33 29 28 26 25 21 17 13 10 8 7 8 9 10 11
1 6 3 3 5 9 14 18 7 7 7 7 5 1 2 4 18 30 28 37 43 46 46 46 46 44 42 39 35 29 28 30 29 27 22 19 15 11 9 8 8 10 11 12
4 6 2 5 9 16 25 16 9 9 9 9 4 3 3 3 4 9 20 31 42 43 44 45 46 45 42 39 34 29 28 29 30 27 22 20 16 13 10 8 9 10 11 12
1 4 5 4 12 4 6 15 13 18 18 9 8 5 2 1 1 3 17 22 35 40 42 45 46 45 42 39 35 32 29 30 30 27 23 21 18 13 11 9 9 10 11 13
Wind_Direction
204 147 206 218 185 169 196 185 184 173 185 157 142 150 178 183 166 166 162 158 144 136 126 111 98 90 89 83 84 88 101 102 139 150 103 85 81 53 35 37 40 38 36 37
154 217 228 217 192 223 201 211 204 169 162 132 140 166 188 194 175 172 152 143 141 142 147 149 149 130 100 91 67 74 90 97 115 120 110 108 105 84 64 39 37 39 37 38
194 218 228 221 202 213 230 245 134 136 183 115 113 118 181 214 193 192 183 170 169 169 163 167 134 111 109 96 87 74 84 95 111 130 134 123 114 113 79 58 42 45 44 44
222 229 208 229 202 201 224 156 153 151 161 158 178 209 198 192 208 202 170 165 165 163 162 151 141 133 120 114 96 88 83 98 113 130 131 121 94 88 79 75 56 45 47 44
232 226 198 222 198 198 187 125 143 156 171 117 222 106 221 179 196 173 148 163 163 163 156 154 146 133 118 118 101 60 89 97 108 109 111 104 102 90 87 82 68 55 52 48
239 211 178 229 185 157 135 129 144 153 202 326 201 167 205 181 194 177 164 157 154 156 160 163 158 153 146 129 126 115 96 99 99 110 100 98 95 98 92 83 69 57 52 48
250 175 189 231 226 133 119 133 110 17 176 203 188 205 228 197 194 181 173 169 173 172 168 165 166 164 152 139 142 131 107 104 102 104 113 101 95 90 83 72 66 58 51 47
164 200 158 199 187 171 157 142 156 165 185 208 195 215 241 195 195 177 166 165 171 170 170 171 174 163 157 149 145 149 135 116 111 105 100 100 92 85 79 71 61 55 47 44
184 200 155 182 230 151 218 175 183 131 228 109 213 34 348 129 146 152 155 160 166 168 171 177 176 176 175 168 160 169 161 140 123 104 95 89 88 79 69 59 53 48 46 42
206 187 174 197 182 280 164 163 122 13 147 208 262 173 177 154 151 153 158 161 164 169 169 175 172 172 184 186 167 158 172 143 129 135 112 98 82 70 61 52 50 45 41 37
185 119 224 149 186 196 110 189 122 119 140 168 201 271 165 169 157 162 163 162 165 170 173 179 179 180 189 200 178 160 179 163 149 139 120 100 90 75 59 51 49 43 36 31
201 152 162 189 120 83 322 171 129 135 266 192 138 272 307 175 158 160 160 161 170 175 176 184 181 183 192 199 181 176 184 183 168 163 135 119 106 82 64 50 43 38 30 27
191 135 103 85 2 321 212 215 153 118 105 207 131 261 48 126 137 158 156 163 171 178 182 183 182 185 190 195 196 185 191 190 177 182 165 151 126 89 58 46 38 33 27 24
160 144 151 187 197 139 207 225 149 130 123 169 205 193 156 154 152 160 165 167 175 181 183 183 185 188 193 199 204 199 188 199 194 188 191 176 156 114 66 47 37 31 24 18
109 144 135 186 164 183 205 222 225 182 175 174 200 221 212 185 178 173 169 171 176 182 185 186 189 190 194 198 198 203 203 204 197 190 196 185 173 136 68 39 33 26 16 10
8 100 102 292 240 198 214 213 218 219 194 207 195 232 201 198 173 168 176 177 179 181 184 190 192 191 193 196 199 201 209 206 198 194 196 186 177 158 62 26 27 16 8 4
134 118 92 227 261 315 256 212 210 214 224 214 197 220 286 171 177 182 180 185 184 184 185 190 193 192 196 199 203 205 208 205 197 195 195 192 188 187 53 18 15 6 2 5
141 121 98 177 113 247 251 202 183 208 222 220 219 219 185 184 185 186 188 185 187 185 188 193 194 195 198 201 205 206 206 208 201 197 197 197 197 207 350 360 4 0 358 3
149 123 125 143 204 273 235 215 215 188 251 210 202 216 212 191 184 188 192 195 193 193 193 195 195 196 197 199 202 203 205 207 202 198 201 203 204 221 281 334 347 349 353 353
183 130 132 137 178 215 198 260 245 30 262 242 216 207 221 176 186 197 194 196 196 197 194 196 196 194 197 197 200 202 206 205 202 197 204 212 222 229 258 311 329 334 338 342
171 125 189 121 202 275 247 247 240 210 244 229 221 248 208 188 200 200 196 196 196 194 195 197 195 195 197 197 200 204 206 207 203 198 208 220 227 234 260 296 320 327 329 336
163 151 184 120 141 255 202 263 194 225 173 124 7 49 49 223 224 193 195 193 192 191 194 195 193 195 197 201 202 205 207 205 200 205 218 223 226 236 259 292 304 319 329 328
201 181 189 188 200 210 211 242 185 144 128 113 123 40 20 232 195 188 189 190 191 192 194 194 195 195 197 201 207 208 210 201 204 212 221 224 225 234 253 279 306 318 322 323
124 297 319 37 223 210 226 241 185 153 143 123 123 62 73 66 194 181 184 193 190 193 192 192 193 193 194 200 208 218 211 205 209 219 224 222 226 237 252 275 301 315 319 326
203 132 354 291 313 203 219 233 206 195 153 169 178 130 91 99 96 161 185 189 189 191 192 194 194 195 197 199 206 212 212 209 215 223 226 223 227 238 248 274 298 311 317 324
211 146 165 241 290 6 334 317 269 208 205 189 178 164 212 243 138 140 168 178 191 191 192 194 197 198 199 201 205 210 213 215 220 224 224 222 229 237 247 267 291 305 313 325
Height
1482 1488 1491 1484 1481 1485 1491 1498 1504 1507 1508 1517 1527 1534 1536 1537 1539 1542 1543 1547 1551 1556 1557 1559 1559 1556 1555 1554 1557 1556 1555 1555 1555 1558 1556 1555 1554 1554 1552 1550 1552 1549 1549 1547
1484 1488 1478 1476 1479 1483 1487 1491 1498 1503 1505 1515 1530 1539 1535 1535 1536 1540 1544 1547 1546 1553 1557 1557 1559 1558 1553 1556 1556 1556 1556 1557 1555 1556 1556 1556 1556 1556 1553 1551 1552 1551 1550 1548
1483 1474 1473 1474 1477 1482 1484 1487 1495 1503 1507 1519 1529 1543 1540 1537 1537 1538 1541 1543 1548 1550 1551 1556 1557 1556 1556 1556 1557 1557 1556 1556 1557 1556 1557 1556 1556 1556 1554 1553 1552 1552 1551 1549
1473 1466 1468 1471 1473 1475 1485 1478 1486 1496 1503 1525 1517 1550 1537 1532 1532 1534 1539 1541 1545 1549 1551 1555 1556 1556 1557 1557 1558 1558 1555 1557 1558 1558 1556 1555 1555 1555 1554 1555 1555 1553 1552 1550
1467 1462 1465 1468 1466 1466 1477 1473 1487 1497 1505 1515 1517 1533 1526 1526 1533 1534 1535 1538 1542 1546 1549 1553 1555 1555 1557 1558 1558 1556 1557 1558 1558 1559 1558 1555 1558 1555 1557 1556 1554 1554 1554 1552
1458 1453 1455 1458 1457 1460 1465 1479 1489 1496 1505 1531 1512 1521 1534 1523 1518 1524 1530 1535 1540 1545 1549 1552 1555 1555 1556 1556 1559 1561 1558 1557 1559 1557 1560 1556 1556 1556 1557 1556 1555 1555 1554 1553
1455 1455 1453 1455 1462 1460 1467 1484 1516 1528 1537 1532 1500 1510 1515 1502 1503 1507 1516 1526 1534 1540 1545 1549 1553 1554 1556 1560 1560 1560 1559 1557 1558 1559 1559 1558 1556 1557 1557 1556 1557 1558 1556 1554
1467 1472 1457 1454 1460 1469 1472 1482 1513 1519 1527 1517 1494 1514 1501 1489 1490 1503 1513 1523 1532 1538 1544 1549 1552 1554 1556 1557 1559 1560 1558 1557 1558 1560 1559 1559 1558 1558 1557 1558 1558 1559 1556 1556
1461 1463 1451 1452 1454 1459 1470 1483 1476 1493 1491 1513 1502 1497 1490 1479 1492 1503 1512 1521 1527 1534 1539 1544 1549 1551 1553 1557 1559 1557 1556 1558 1558 1559 1560 1559 1559 1558 1558 1559 1559 1559 1557 1557
1447 1465 1451 1453 1456 1458 1461 1467 1494 1505 1519 1509 1502 1501 1508 1495 1496 1502 1510 1516 1523 1531 1537 1542 1546 1549 1551 1554 1556 1557 1557 1557 1558 1560 1559 1560 1559 1558 1559 1559 1560 1559 1558 1556
1441 1457 1460 1453 1460 1467 1468 1474 1482 1491 1504 1518 1528 1517 1483 1486 1490 1496 1504 1512 1519 1526 1532 1538 1542 1546 1548 1552 1555 1556 1556 1557 1558 1559 1560 1559 1559 1560 1560 1561 1560 1559 1557 1555
1439 1453 1469 1459 1452 1453 1460 1467 1479 1510 1516 1514 1519 1517 1477 1480 1485 1492 1501 1509 1516 1523 1529 1534 1538 1542 1546 1550 1552 1554 1555 1556 1557 1558 1559 1559 1560 1560 1561 1559 1559 1558 1556 1554
1437 1458 1478 1465 1463 1458 1465 1465 1470 1482 1497 1512 1526 1519 1479 1481 1488 1494 1499 1507 1514 1520 1526 1531 1535 1539 1543 1546 1549 1551 1553 1555 1556 1557 1558 1559 1559 1559 1559 1559 1558 1557 1555 1553
1430 1443 1458 1469 1463 1462 1467 1465 1468 1479 1503 1502 1505 1492 1485 1485 1488 1493 1498 1503 1510 1516 1522 1527 1532 1535 1539 1543 1546 1549 1552 1554 1555 1556 1557 1557 1558 1559 1559 1558 1557 1556 1554 1553
1432 1445 1445 1449 1449 1456 1461 1463 1464 1472 1477 1490 1486 1487 1483 1480 1481 1485 1493 1499 1506 1511 1517 1522 1526 1531 1535 1540 1544 1547 1550 1552 1553 1555 1555 1556 1557 1558 1557 1557 1556 1555 1554 1552
1432 1447 1442 1464 1448 1451 1458 1457 1459 1463 1467 1471 1475 1477 1469 1473 1479 1484 1488 1494 1499 1505 1510 1516 1521 1526 1531 1535 1540 1544 1547 1549 1551 1553 1554 1555 1556 1555 1555 1555 1555 1554 1553 1551
1438 1448 1457 1463 1454 1458 1464 1453 1453 1456 1455 1460 1473 1464 1462 1467 1471 1476 1481 1487 1492 1498 1503 1509 1514 1520 1525 1530 1535 1540 1543 1547 1549 1550 1552 1553 1554 1554 1554 1554 1553 1553 1552 1550
1439 1445 1456 1477 1459 1478 1449 1437 1442 1449 1449 1452 1455 1456 1457 1460 1461 1468 1475 1479 1486 1492 1498 1503 1509 1515 1521 1527 1532 1537 1541 1544 1546 1548 1549 1551 1552 1552 1552 1552 1552 1551 1550 1548
1432 1444 1462 1473 1475 1456 1442 1437 1441 1446 1451 1443 1447 1450 1453 1456 1462 1465 1467 1473 1480 1486 1493 1499 1504 1510 1517 1522 1528 1533 1537 1540 1543 1545 1546 1548 1549 1550 1550 1550 1550 1549 1548 1546
1432 1438 1454 1468 1477 1472 1444 1436 1436 1438 1454 1438 1441 1443 1446 1452 1462 1458 1462 1468 1475 1482 1488 1494 1501 1507 1512 1518 1523 1529 1533 1536 1539 1541 1544 1546 1547 1548 1548 1548 1548 1547 1546 1544
1443 1451 1453 1472 1473 1451 1434 1434 1436 1454 1456 1435 1436 1438 1438 1443 1446 1451 1457 1462 1468 1475 1483 1490 1495 1501 1506 1513 1519 1524 1529 1531 1535 1539 1541 1543 1544 1545 1546 1546 1545 1544 1543 1542
1437 1450 1458 1458 1469 1462 1430 1433 1439 1436 1430 1432 1433 1434 1435 1436 1439 1445 1450 1456 1462 1470 1477 1483 1489 1495 1502 1507 1513 1519 1524 1529 1533 1535 1537 1539 1541 1542 1543 1543 1543 1541 1540 1539
1433 1431 1441 1437 1438 1427 1426 1428 1428 1429 1427 1429 1432 1433 1433 1433 1435 1439 1444 1450 1457 1464 1470 1477 1483 1491 1497 1502 1508 1514 1520 1526 1529 1532 1534 1536 1537 1539 1540 1540 1539 1539 1537 1536
1427 1426 1432 1430 1424 1424 1425 1426 1427 1427 1428 1429 1431 1432 1433 1432 1432 1435 1439 1446 1453 1460 1465 1472 1479 1486 1492 1498 1505 1511 1517 1522 1525 1528 1530 1532 1534 1535 1536 1536 1536 1535 1534 1532
1425 1425 1431 1430 1424 1421 1423 1425 1426 1427 1428 1430 1431 1432 1432 1433 1433 1434 1437 1442 1448 1455 1462 1468 1474 1480 1487 1494 1501 1508 1513 1517 1521 1524 1527 1528 1530 1532 1533 1533 1533 1532 1530 1529
1423 1430 1434 1437 1426 1428 1425 1424 1425 1423 1425 1428 1430 1432 1433 1433 1435 1437 1440 1442 1447 1452 1458 1464 1470 1476 1482 1490 1497 1503 1507 1512 1516 1520 1522 1524 1526 1528 1529 1530 1530 1528 1527 1525